Date String (YYYY-MM-DD hh:mm:ss) UTC,Instrument flags,absolute air pressure of the measurement (hPa),sample flow rate (lpm),inlet stack bypass flow (lpm),air temperature of the measurement (°C),ambient temperature measured by the external sensor (°C),aerosol sample conditioner tube jacket temperature (°C),OPC LED temperature (°C),internal box temperature (°C),relative humidity of the measurement (%),span deviation,mass concentration of particles derived from Lorenz-Mie calculation of OPC scattering (μg/m³),mass concentration of particles derived from Lorenz-Mie calculation of OPC scattering (μg/m³),mass concentration of particles derived from Lorenz-Mie calculation of OPC scattering (μg/m³)
DateTimeUTC,F1_M11,P_M11,Q1_M11,Q2_M11,T1_M11,T2_M11,T3_M11,T4_M11,T5_M11,U1_M11,ZSPAN_M11,X2_M11,X0_M11,X1_M11
2024-05-22 22:00:00,SystemResetWarning,0823.1,5.00,000.00,029.4,028.8,000.0,037.6,031.1,008.5,0000.0,0002.21,0009.63,0001.49
2024-05-22 22:01:00,SystemResetWarning,0823.1,5.01,000.00,029.5,028.8,000.0,037.6,031.2,008.1,0000.0,0002.19,0008.87,0001.48
2024-05-22 22:02:00,SystemResetWarning,0822.9,5.01,000.00,029.5,028.8,000.0,037.6,031.2,008.0,0000.0,0002.24,0009.08,0001.49
2024-05-22 22:03:00,SystemResetWarning,0822.9,5.00,000.00,029.5,028.9,000.0,037.6,031.2,008.1,0000.0,0002.23,0009.05,0001.50
2024-05-22 22:04:00,SystemResetWarning,0823.0,5.00,000.00,029.5,028.9,000.0,037.7,031.2,007.9,0000.0,0002.17,0009.04,0001.48
2024-05-22 22:05:00,SystemResetWarning,0823.0,5.00,000.00,029.5,028.9,000.0,037.7,031.3,008.2,0000.0,0002.16,0008.49,0001.48
2024-05-22 22:06:00,SystemResetWarning,0822.9,4.99,000.00,029.6,028.9,000.0,037.7,031.3,008.3,0000.0,0002.17,0009.47,0001.47
2024-05-22 22:07:00,SystemResetWarning,0822.8,5.00,000.00,029.6,029.0,000.0,037.7,031.3,008.3,0000.0,0002.14,0009.54,0001.47
2024-05-22 22:08:00,SystemResetWarning,0823.1,5.00,000.00,029.6,029.0,000.0,037.7,031.3,008.4,0000.0,0002.11,0009.47,0001.45
2024-05-22 22:09:00,SystemResetWarning,0823.0,5.01,000.00,029.6,029.0,000.0,037.8,031.3,007.9,0000.0,0002.11,0009.07,0001.46
2024-05-22 22:10:00,SystemResetWarning,0823.1,5.01,000.00,029.6,029.0,000.0,037.8,031.3,008.0,0000.0,0002.15,0009.02,0001.47
2024-05-22 22:11:00,SystemResetWarning,0823.1,5.00,000.00,029.7,029.0,000.0,037.8,031.3,008.0,0000.0,0002.19,0008.10,0001.46
2024-05-22 22:12:00,SystemResetWarning,0822.8,5.00,000.00,029.7,029.1,000.0,037.8,031.4,008.1,0000.0,0002.21,0007.48,0001.47
2024-05-22 22:13:00,SystemResetWarning,0823.0,4.99,000.00,029.7,029.1,000.0,037.8,031.4,007.9,0000.0,0002.19,0006.76,0001.47
2024-05-22 22:14:00,SystemResetWarning,0823.0,5.00,000.00,029.7,029.1,000.0,037.9,031.4,007.8,0000.0,0002.17,0007.17,0001.46
2024-05-22 22:15:00,SystemResetWarning,0823.1,5.01,000.00,029.7,029.1,000.0,037.9,031.4,007.9,0000.0,0002.20,0007.82,0001.48
2024-05-22 22:16:00,SystemResetWarning,0823.0,5.00,000.00,029.8,029.1,000.0,037.9,031.4,008.2,0000.0,0002.20,0008.17,0001.47
2024-05-22 22:17:00,SystemResetWarning,0822.8,5.00,000.00,029.8,029.2,000.0,037.9,031.5,007.9,0000.0,0002.21,0006.51,0001.47
2024-05-22 22:18:00,SystemResetWarning,0822.9,5.00,000.00,029.8,029.2,000.0,037.9,031.5,008.2,0000.0,0002.26,0006.31,0001.47
2024-05-22 22:19:00,SystemResetWarning,0822.7,4.99,000.00,029.8,029.2,000.0,038.0,031.5,008.2,0000.0,0002.26,0006.73,0001.49
2024-05-22 22:20:00,SystemResetWarning,0822.7,4.99,000.00,029.8,029.2,000.0,038.0,031.5,008.3,0000.0,0002.23,0007.35,0001.48
2024-05-22 22:21:00,SystemResetWarning,0822.9,5.00,000.00,029.8,029.2,000.0,038.0,031.5,008.2,0000.0,0002.23,0007.35,0001.48
2024-05-22 22:22:00,SystemResetWarning,0823.1,5.01,000.00,029.9,029.2,000.0,038.0,031.6,008.3,0000.0,0002.23,0007.34,0001.49
2024-05-22 22:23:00,SystemResetWarning,0823.1,5.00,000.00,029.9,029.3,000.0,038.0,031.6,008.2,0000.0,0002.26,0007.39,0001.50
2024-05-22 22:24:00,SystemResetWarning,0823.0,5.00,000.00,029.9,029.3,000.0,038.1,031.6,007.8,0000.0,0002.28,0007.46,0001.50
2024-05-22 22:25:00,SystemResetWarning,0823.0,5.00,000.00,029.9,029.3,000.0,038.1,031.6,007.8,0000.0,0002.29,0007.37,0001.49
2024-05-22 22:26:00,SystemResetWarning,0822.9,5.00,000.00,029.9,029.3,000.0,038.1,031.6,008.2,0000.0,0002.26,0006.46,0001.47
2024-05-22 22:27:00,SystemResetWarning,0822.9,5.01,000.00,030.0,029.3,000.0,038.1,031.6,007.9,0000.0,0002.26,0005.72,0001.48
2024-05-22 22:28:00,SystemResetWarning,0822.7,5.01,000.00,030.0,029.3,000.0,038.1,031.7,008.4,0000.0,0002.28,0005.85,0001.50
2024-05-22 22:29:00,SystemResetWarning,0822.5,5.00,000.00,030.0,029.4,000.0,038.2,031.7,008.2,0000.0,0002.23,0005.73,0001.50
2024-05-22 22:30:00,SystemResetWarning,0822.6,4.99,000.00,030.0,029.4,000.0,038.2,031.7,007.8,0000.0,0002.25,0007.04,0001.52
2024-05-22 22:31:00,SystemResetWarning,0822.6,5.00,000.00,030.0,029.4,000.0,038.2,031.7,007.9,0000.0,0002.25,0007.41,0001.52
2024-05-22 22:32:00,SystemResetWarning,0822.5,5.01,000.00,030.0,029.4,000.0,038.2,031.7,008.8,0000.0,0002.24,0007.55,0001.52
2024-05-22 22:33:00,SystemResetWarning,0822.5,5.01,000.00,030.0,029.4,000.0,038.2,031.7,008.3,0000.0,0002.25,0007.88,0001.52
2024-05-22 22:34:00,SystemResetWarning,0822.4,4.99,000.00,030.0,029.4,000.0,038.3,031.7,008.8,0000.0,0002.23,0008.14,0001.51
2024-05-22 22:35:00,SystemResetWarning,0822.6,4.99,000.00,030.1,029.4,000.0,038.3,031.8,008.6,0000.0,0002.21,0008.10,0001.50
2024-05-22 22:36:00,SystemResetWarning,0822.5,5.01,000.00,030.1,029.4,000.0,038.3,031.8,008.8,0000.0,0002.19,0008.17,0001.51
2024-05-22 22:37:00,SystemResetWarning,0822.4,5.02,000.00,030.1,029.4,000.0,038.3,031.8,008.8,0000.0,0002.21,0008.10,0001.51
2024-05-22 22:38:00,SystemResetWarning,0822.4,5.00,000.00,030.1,029.4,000.0,038.3,031.7,008.6,0000.0,0002.26,0008.25,0001.50
2024-05-22 22:39:00,SystemResetWarning,0822.4,4.98,000.00,030.1,029.4,000.0,038.3,031.8,008.4,0000.0,0002.27,0008.30,0001.50
2024-05-22 22:40:00,SystemResetWarning,0822.4,5.00,000.00,030.1,029.5,000.0,038.3,031.8,008.4,0000.0,0002.27,0009.95,0001.50
2024-05-22 22:41:00,SystemResetWarning,0822.6,5.01,000.00,030.1,029.5,000.0,038.4,031.8,008.3,0000.0,0002.24,0009.44,0001.48
2024-05-22 22:42:00,SystemResetWarning,0822.4,5.01,000.00,030.1,029.5,000.0,038.4,031.8,008.2,0000.0,0002.27,0008.52,0001.49
2024-05-22 22:43:00,SystemResetWarning,0822.4,5.00,000.00,030.1,029.5,000.0,038.4,031.8,008.2,0000.0,0002.23,0008.20,0001.48
2024-05-22 22:44:00,SystemResetWarning,0822.4,4.99,000.00,030.2,029.5,000.0,038.4,031.9,007.4,0000.0,0002.21,0007.96,0001.45
2024-05-22 22:45:00,SystemResetWarning,0822.4,5.01,000.00,030.2,029.5,000.0,038.4,031.9,007.4,0000.0,0002.20,0007.62,0001.45
2024-05-22 22:46:00,SystemResetWarning,0822.4,5.01,000.00,030.2,029.5,000.0,038.4,031.9,007.5,0000.0,0002.20,0007.91,0001.45
2024-05-22 22:47:00,SystemResetWarning,0822.4,5.00,000.00,030.2,029.6,000.0,038.4,031.9,007.9,0000.0,0002.21,0008.71,0001.43
2024-05-22 22:48:00,SystemResetWarning,0822.4,5.00,000.00,030.2,029.6,000.0,038.4,031.9,007.5,0000.0,0002.16,0009.05,0001.41
2024-05-22 22:49:00,SystemResetWarning,0822.4,4.99,000.00,030.2,029.6,000.0,038.5,031.9,007.2,0000.0,0002.13,0008.98,0001.41
2024-05-22 22:50:00,SystemResetWarning,0822.4,5.00,000.00,030.2,029.6,000.0,038.5,031.9,007.0,0000.0,0002.08,0008.76,0001.39
2024-05-22 22:51:00,SystemResetWarning,0822.4,5.01,000.00,030.2,029.6,000.0,038.5,031.9,007.4,0000.0,0002.07,0007.79,0001.39
2024-05-22 22:52:00,SystemResetWarning,0822.3,5.00,000.00,030.3,029.6,000.0,038.5,031.9,008.4,0000.0,0001.99,0007.38,0001.37
2024-05-22 22:53:00,SystemResetWarning,0822.3,4.99,000.00,030.3,029.6,000.0,038.5,032.0,007.5,0000.0,0001.95,0008.05,0001.36
2024-05-22 22:54:00,SystemResetWarning,0822.2,5.00,000.00,030.3,029.6,000.0,038.5,032.0,007.2,0000.0,0001.97,0008.33,0001.35
2024-05-22 22:55:00,SystemResetWarning,0822.2,5.00,000.00,030.3,029.6,000.0,038.5,032.0,007.3,0000.0,0001.95,0008.32,0001.35
2024-05-22 22:56:00,SystemResetWarning,0822.2,5.01,000.00,030.3,029.7,000.0,038.6,032.0,007.2,0000.0,0001.88,0008.30,0001.34
2024-05-22 22:57:00,SystemResetWarning,0822.3,5.00,000.00,030.3,029.7,000.0,038.6,032.0,007.0,0000.0,0001.84,0009.13,0001.32
2024-05-22 22:58:00,SystemResetWarning,0822.3,5.00,000.00,030.3,029.7,000.0,038.6,032.0,007.1,0000.0,0001.84,0008.43,0001.32
2024-05-22 22:59:00,SystemResetWarning,0822.2,5.00,000.00,030.3,029.7,000.0,038.6,032.0,007.3,0000.0,0001.82,0007.84,0001.32
